PAGEOS 1 DEB, 2511

Orbit data source: Space-Track

PAGEOS 1 DEB, 2511 is space debris in LEO originally from a launch on Fri, 24 Jun 1966 UTC launched from the Air Force Western Test Range (AFWTR). Debris objects in space refer to the collection of defunct objects orbiting the Earth. Examples of debris include non-operational satellites, rocket bodies, and fragments generated from explosions, collisions, or faulty payload assembly.

Loading next visibility...
Identifier
2511, 1966-056D
Orbit
LEO
Country
Flag of USUS
Related business
Manufacturer
Goodyear
Mission
Spacecraft
Bus & Motor
ECHO CANISTER, Unknown motor
Mass
9 kg wet, 9 kg dry
Launch date (UTC)
1966-06-24 (60 years ago)
Launch vehicle
Unknown
Launch site
Air Force Western Test Range (AFWTR)
Object type
Payload
Rocket body
Debris
Shape & HBR
Unknown
Radar Cross Section
Large (>1 m²)

Expand to show TLE details & history
Last TLE update: 4 days ago

TLE from 4 days ago
0 PAGEOS 1 DEB
1 02511U 66056D   26101.34369771  .00000001  00000-0 -12412-2 0  9996
2 02511  87.0031 230.6074 0012547 255.0333 104.9084  7.93368537347283
Epoch: 2026-04-11T08:14Z
TLE epoch observation values (Epoch: 2026-04-11T08:14:55.482Z)
Latitude
-0.00002°
Longitude
-92.68814°
Altitude
4,246.407 km
Speed
6.125 km/s
True Right ascension
15h 22m 25s
True Declination
0° 00' 00"
Sunlit
Object was in full shadow at epoch
Visualization orbit readout
Latitude
Unknown
Longitude
Unknown
Altitude
Unknown
Speed
Unknown
Apparent Right ascension
Unknown
Apparent Declination
Unknown
Sunlit
N/A
Visualization observer readout
Local Sidereal Time
10:29:50
Azimuth
Unknown
Elevation
Unknown
Doppler factor
Unknown
Orbital elements
Apogee altitude
4,252.173 km
Perigee altitude
4,225.53 km
Semi-major axis
10,616.989 km
Eccentricity
0.00125
Inclination
87.0031°
RAAN
230.6074°
Arg. of periapsis
255.0333°
True anomaly
105.04728°
Mean anomaly
104.9084°
Eccentric anomaly
104.97785°
Mean motion
1.984 °/min
Orbital period
181.45 mins
BSTAR
-0.0012412
Loading maneuver chart data...
Computing Atmospheric mass density...

Documentation

Showing up to 5 results
|